MyTimes logo

TIMES

Webb Imagery

10/02/2013
Phillip Island Swim Classic
2.0km

(Click on competitor name to view personalised results)

Name
Race #
Category
Time
(h:mm:ss)
Avg Speed
km/hr
OAll
Place
Cat
Place
ASBURY Shane#605Open Male0:25:43"12:51 " 11
GANDY Ellen#530Open Female0:26:02"13:01 " 21
ANDREW Chris#442Veteran Male0:27:29"13:45 " 31
BLUNT Philip#412Junior Male0:27:50"13:55 " 41
OSBORNE Stephen#453Veteran Male0:28:01"14:01 " 52
GROVES Tamara#471Junior Female0:28:33"14:16 " 61
ROBINSON Isabelle#527Open Female0:28:40"14:20 " 72
SMITH Ryan#622Open Male0:28:47"14:24 " 82
BUTT Chloe#517Open Female0:28:49"14:25 " 93
GALBRAITH Dana#458Veteran Male0:29:01"14:30 " 103
CHAPLIN Greg#428Veteran Male0:29:02"14:31 " 114
PAGE Phillip#479Veteran Male0:29:04"14:32 " 125
ROBERTS Sam#487Junior Male0:29:05"14:32 " 132
BATES Oliver#491Junior Male0:29:24"14:42 " 143
LEE William#430Junior Male0:29:26"14:43 " 154
STAHAN Shane#484Junior Male0:29:27"14:43 " 165
JUHA Cam#611Open Male0:29:39"14:49 " 173
BAILLE Malcolm#472Veteran Male0:29:40"14:50 " 186
LOMBARD Michael#481Veteran Male0:29:58"14:59 " 197
FYFIELD Sally#508Open Female0:30:01"15:00 " 204
GEARD Ben#620Senior Male0:30:36"15:18 " 211
HAZEL Phil#621Mature Male0:30:41"15:20 " 221
ARMSTRONG Trevor#429Super Veteran Male0:30:49"15:25 " 231
DE CORT Melina#426Junior Female0:30:50"15:25 " 242
PEPPER Annie#489Junior Female0:31:32"15:46 " 253
TSEBELIS Alexander#449Junior Male0:31:36"15:48 " 266
DOULTREE Jasmine#443Junior Female0:31:36"15:48 " 274
REID Ellodie#404Junior Female0:31:38"15:49 " 285
XXX Xxx#455Veteran Male0:31:41"15:50 " 298
SCREEN Alex#637Mature Male0:31:45"15:52 " 302
ROBERTS Erin#488Junior Female0:31:48"15:54 " 316
DESSENT Tiger#634Mature Male0:31:52"15:56 " 323
PLANT Luke#623Open Male0:32:13"16:07 " 334
ALLEN Mark#454Veteran Male0:32:16"16:08 " 349
DRAKE Michael#641Senior Male0:32:18"16:09 " 352
OWENS Cameron#636Mature Male0:32:19"16:10 " 364
DUYVESTYN Con#405Super Veteran Male0:32:23"16:12 " 372
BOND Marcus#614Senior Male0:32:32"16:16 " 383
PAGE Stephen#635Mature Male0:32:36"16:18 " 395
CORNELISSEN Mikaela#424Junior Female0:32:36"16:18 " 407
DA ROS Taylah#441Junior Female0:32:38"16:19 " 418
SCHOUTENS Fabienne#425Junior Female0:32:39"16:20 " 429
ROWAND Jordan#431Junior Female0:32:44"16:22 " 4310
GORDON Michael#492Veteran Male0:32:47"16:24 " 4410
MOORE Andrew#617Senior Male0:33:11"16:36 " 454
MATCHETT Hannah#444Junior Female0:33:12"16:36 " 4611
EVANS Brad#624Mature Male0:33:21"16:41 " 476
DE GRAAF Julian#613Senior Male0:33:27"16:44 " 485
BUSSELL Sue#473Veteran Female0:33:31"16:45 " 491
TRAVERS Graham#452Super Veteran Male0:33:43"16:52 " 503
EDWARDS Molly#437Junior Female0:33:47"16:54 " 5112
JONES Stephen#446Veteran Male0:33:49"16:55 " 5211
FOOTE Nathan#415Junior Male0:33:51"16:55 " 537
BAYNARD-SMITH Rebekah#440Junior Female0:33:59"17:00 " 5413
FITZPATRICK Sophie#439Junior Female0:34:02"17:01 " 5514
HARWOOD Michael#423Veteran Male0:34:15"17:07 " 5612
BEVERIDGE Samuel#610Open Male0:34:31"17:15 " 575
TSEBELIS Georgia#448Junior Female0:34:39"17:20 " 5815
O'KEEFE Maggie#433Junior Female0:34:40"17:20 " 5916
SIMPSON Emma#507Open Female0:35:04"17:32 " 605
O'CONNELL Arna#509Mature Female0:35:08"17:34 " 611
OLSEN Andrea#518Mature Female0:35:12"17:36 " 622
CHILDS Craig#603Mature Male0:35:19"17:39 " 637
STAPLETON Gary#498Super Veteran Male0:35:22"17:41 " 644
BRYCE Jason#616Mature Male0:35:23"17:41 " 658
VAN DUNGEN Richard#467Veteran Male0:35:33"17:46 " 6613
RIELLY Debbie#503Mature Female0:35:34"17:47 " 673
O'SHEA Simon#403Veteran Male0:35:39"17:49 " 6814
BEHRSIN Brianna#496Junior Female0:35:42"17:51 " 6917
FYFIELD Paul#436Veteran Male0:35:43"17:51 " 7015
SORENSEN Michael#470Veteran Male0:35:46"17:53 " 7116
NETTLEINGHAM Adam#619Senior Male0:35:48"17:54 " 726
MACINTYRE Stuart#474Veteran Male0:35:49"17:55 " 7317
ATKINSON Kim#510Mature Female0:36:09"18:05 " 744
CANN Lara#501Open Female0:36:19"18:09 " 756
CALHAEM Davina#526Mature Female0:36:31"18:15 " 765
GOLLAN Kate#523Open Female0:36:31"18:15 " 777
NEVINS Rachael#520Open Female0:36:51"18:26 " 788
SAUNDERS Allan#477Veteran Male0:36:59"18:30 " 7918
SHEPHERD Miranda#475Junior Female0:37:19"18:39 " 8018
ZZZ Zzz#628Open Male0:37:40"18:50 " 816
NEVINS Susan#464Veteran Female0:37:41"18:51 " 822
WESTLAKE Emma#502Open Female0:37:44"18:52 " 839
LLOYD Karen#506Mature Female0:37:49"18:55 " 846
O'SHANNASSY Peter#476Veteran Male0:37:51"18:56 " 8519
HARRIS Simon#608Senior Male0:37:56"18:58 " 867
CALOMB Keith#639Senior Male0:37:58"18:59 " 878
SOUNNESS Brett#609Senior Male0:38:01"19:00 " 889
PITT Heather#504Mature Female0:38:01"19:00 " 897
O'KEEFE Bride#435Junior Female0:38:13"19:06 " 9019
BAYLY Tara#457Junior Female0:38:15"19:07 " 9120
GIBBENS Bruce#606Mature Male0:38:25"19:12 " 929
CAMERON Jane#497Veteran Female0:38:30"19:15 " 933
DODD Jennifer#420Veteran Female0:38:33"19:16 " 944
BRYDEN Stewart#631Mature Male0:38:36"19:18 " 9510
ROSS Jacqueline#427Veteran Female0:38:36"19:18 " 965
BEHRSIN John#495Veteran Male0:38:38"19:19 " 9720
RINGROSE Paul#411Super Veteran Male0:38:43"19:22 " 985
LUDSKI Gemma#414Junior Female0:38:46"19:23 " 9921
BRADEN Mick#630Mature Male0:39:04"19:32 " 10011
DEAN Stephen#463Veteran Male0:39:11"19:35 " 10121
O'DONOHUE Mark#447Veteran Male0:39:12"19:36 " 10222
STANDER Glen#602Mature Male0:39:27"19:43 " 10312
DEERY Catherine#516Senior Female0:39:45"19:52 " 1041
COLLINS Chris#615Mature Male0:39:46"19:53 " 10513
SYME Michael#460Veteran Male0:39:51"19:55 " 10623
VAN OOSTEN Yolande#513Mature Female0:39:52"19:56 " 1078
FLEISNER Paul#422Super Veteran Male0:39:57"19:58 " 1086
BRENDTSEN Katrina#459Junior Female0:40:00"20:00 " 10922
WALKER Christine#478Super Veteran Female0:40:44"20:22 " 1101
MORRISON Kerry#465Veteran Female0:40:45"20:22 " 1116
LANGLANDS Jock#406Super Veteran Male0:40:45"20:22 " 1127
BELCHER Evie#462Junior Female0:41:12"20:36 " 11323
MCKINNA Cheryl#438Super Veteran Female0:41:23"20:42 " 1142
WILLIAMS Stephen#627Senior Male0:41:30"20:45 " 11510
TEMPLAR Natalie#418Junior Female0:41:40"20:50 " 11624
MANNING Simon#468Veteran Male0:42:05"21:03 " 11724
OWEN Paul#626Senior Male0:42:27"21:13 " 11811
KAMINSKI Peter#413Veteran Male0:42:27"21:13 " 11925
WOODWARD Alf#469Veteran Female0:42:51"21:25 " 1207
JONES Amy#511Open Female0:43:06"21:33 " 12110
MC CASKER Jessica#524Open Female0:43:11"21:36 " 12211
CARTER Dean#490Super Veteran Male0:43:19"21:39 " 1238
TAYLOR Cheryl#493Veteran Female0:43:53"21:56 " 1248
HOLLINS Jenny#512Mature Female0:44:05"22:03 " 1259
MARSHALL Sarah#519Mature Female0:44:28"22:14 " 12610
BORMAN P#618Senior Male0:44:54"22:27 " 12712
HIBBLE Jenny#401Veteran Female0:45:19"22:39 " 1289
ALDERSON Allan#494Super Veteran Male0:45:45"22:53 " 1299
CLEMPSON Virginia#522Mature Female0:46:21"23:10 " 13011
YYY Yyy#505Open Female0:46:59"23:30 " 13112
WILLIAMS John#419Super Veteran Male0:47:13"23:36 " 13210
DALLINGER Brian#486Super Veteran Male0:47:27"23:44 " 13311
WHITE Ashley#633Senior Male0:47:39"23:50 " 13413
FITZGERALD Richard#466Veteran Male0:48:37"24:18 " 13526
CHESSUM Gordon#625Mature Male0:50:29"25:15 " 13614
O'DONOHUE Lesley#531Mature Female0:53:52"26:56 " 13712
THOMAS Julie#482Super Veteran Female0:54:26"27:13 " 1383
CLEELAND Mike#483Veteran Male0:56:27"28:13 " 13927